This is the latest recevied weather packets stored in our database for station/object KC5TIL. If no packets are shown the sender has not sent any weather packets the latest 10 day(s).
| Time | Temp. | Humidity | Pressure | Rain* | Wind** | Luminosity | Snow |
|---|---|---|---|---|---|---|---|
| 1787796927 | 31.11° C | 57% | 1013.8 hPa | 0 mm | - | 0 W/m² | - |
| 1787796621 | 31.11° C | 57% | 1013.5 hPa | 0 mm | - | 0 W/m² | - |
| 1787796317 | 31.11° C | 56% | 1013.5 hPa | 0 mm | - | 0 W/m² | - |
| 1787796012 | 31.11° C | 56% | 1013.5 hPa | 0 mm | - | 0 W/m² | - |
| 1787795704 | 31.11° C | 56% | 1013.4 hPa | 0 mm | - | 0 W/m² | - |
| 1787795399 | 31.67° C | 56% | 1013.4 hPa | 0 mm | - | 0 W/m² | - |
| 1787795098 | 31.67° C | 55% | 1013.4 hPa | 0 mm | - | 0 W/m² | - |
| 1787794797 | 31.67° C | 55% | 1013.3 hPa | 0 mm | - | 0 W/m² | - |
| 1787794493 | 31.67° C | 54% | 1013.1 hPa | 0 mm | - | 0 W/m² | - |
| 1787794188 | 32.22° C | 54% | 1013.3 hPa | 0 mm | - | 0 W/m² | - |
| 1787793884 | 32.22° C | 54% | 1013.3 hPa | 0 mm | - | 0 W/m² | - |
| 1787793579 | 32.78° C | 51% | 1012.8 hPa | 0 mm | - | 0 W/m² | - |
| 1787793275 | 32.78° C | 50% | 1012.9 hPa | 0 mm | - | 0 W/m² | - |
| 1787792969 | 32.78° C | 49% | 1012.9 hPa | 0 mm | - | 0 W/m² | - |
| 1787792665 | 32.78° C | 50% | 1012.9 hPa | 0 mm | - | 1 W/m² | - |
| 1787792362 | 32.78° C | 49% | 1013.1 hPa | 0 mm | - | 2 W/m² | - |
| 1787792066 | 33.33° C | 48% | 1012.8 hPa | 0 mm | - | 6 W/m² | - |
| 1787791760 | 33.33° C | 47% | 1012.8 hPa | 0 mm | - | 10 W/m² | - |
| 1787791454 | 33.33° C | 47% | 1012.8 hPa | 0 mm | - | 16 W/m² | - |
| 1787791150 | 33.33° C | 47% | 1013 hPa | 0 mm | - | 24 W/m² | - |
| 1787790845 | 33.33° C | 47% | 1012.7 hPa | 0 mm | - | 34 W/m² | - |
| 1787790541 | 33.33° C | 50% | 1012.8 hPa | 0 mm | - | 47 W/m² | - |
| 1787790236 | 33.33° C | 50% | 1012.7 hPa | 0 mm | - | 62 W/m² | - |
| 1787789931 | 33.33° C | 49% | 1012.8 hPa | 0 mm | - | 77 W/m² | - |
| 1787789631 | 33.33° C | 52% | 1013 hPa | 0 mm | - | 89 W/m² | - |
* Rain latest hour (hover to see other rain measurements)
** Current wind speed in m/s (hover to see current wind gust speed)